Location: Overspoor
(51.4747°N, 5.6641°E)
Time: 06:07:55
(UTC+02:00)

UWE-3 - Visible Passes

Search period start: 29 June 2022 00:00
Search period end: 09 July 2022 00:00
Orbit: 581 x 680 km, 97.7° (Epoch: 28 June)

Date Brightness Start Highest point End Pass type
(mag) Time Alt. Az. Time Alt. Az. Time Alt. Az.
30 Jun ? 03:53:13 10° NE 03:55:45 15° E 03:58:19 10° SE visible
01 Jul ? 04:13:02 10° NE 04:16:30 23° E 04:20:01 10° SE visible
02 Jul ? 04:33:10 10° NNE 04:37:10 35° E 04:41:14 10° SSE visible
04 Jul ? 03:39:48 10° ENE 03:41:19 12° E 03:42:51 10° ESE visible
05 Jul ? 03:59:05 10° NE 04:02:05 18° E 04:05:08 10° SE visible
06 Jul ? 04:19:03 10° NE 04:22:47 27° E 04:26:36 10° SSE visible
07 Jul ? 04:39:16 10° NNE 04:43:26 41° E 04:47:41 10° SSE visible
